QPF
0.00 0.01 0.01 0.02 0.03 0.04 0.04 0.05 0.06 0.07 0.08 0.10 0.09 0.08 0.08 0.06 0.06 0.05 0.04 0.06 0.09 0.14 0.18 0.19 0.18 0.16 0.14 0.12 0.13 0.13 0.12 0.11 0.11 0.12 0.14 0.14 0.13 0.10 0.07 0.06 0.05 0.05 0.05
0.01 0.01 0.01 0.02 0.04 0.07 0.06 0.06 0.06 0.08 0.09 0.12 0.11 0.08 0.09 0.07 0.05 0.05 0.04 0.05 0.07 0.11 0.16 0.19 0.20 0.17 0.14 0.13 0.13 0.14 0.14 0.13 0.10 0.09 0.11 0.13 0.14 0.12 0.09 0.06 0.05 0.04 0.04
0.03 0.03 0.02 0.02 0.04 0.08 0.09 0.09 0.09 0.08 0.08 0.11 0.11 0.09 0.10 0.09 0.06 0.06 0.06 0.04 0.05 0.08 0.12 0.17 0.19 0.19 0.15 0.13 0.12 0.12 0.12 0.13 0.11 0.08 0.08 0.09 0.08 0.08 0.08 0.06 0.05 0.04 0.04
0.03 0.03 0.03 0.03 0.03 0.05 0.08 0.09 0.13 0.10 0.08 0.08 0.09 0.10 0.10 0.11 0.08 0.05 0.05 0.05 0.05 0.07 0.10 0.14 0.17 0.19 0.17 0.13 0.12 0.12 0.11 0.12 0.11 0.10 0.08 0.06 0.05 0.04 0.05 0.06 0.05 0.04 0.04
0.02 0.02 0.02 0.02 0.01 0.03 0.06 0.07 0.12 0.11 0.08 0.07 0.08 0.10 0.11 0.11 0.09 0.08 0.07 0.05 0.05 0.06 0.07 0.10 0.15 0.17 0.18 0.16 0.14 0.14 0.13 0.12 0.11 0.09 0.08 0.08 0.06 0.04 0.04 0.04 0.05 0.06 0.05
0.02 0.03 0.02 0.01 0.01 0.02 0.04 0.05 0.07 0.11 0.11 0.10 0.10 0.10 0.11 0.10 0.09 0.09 0.09 0.08 0.07 0.08 0.08 0.08 0.12 0.15 0.16 0.16 0.16 0.15 0.14 0.12 0.11 0.10 0.08 0.07 0.07 0.06 0.05 0.04 0.04 0.04 0.05
0.02 0.02 0.01 0.01 0.01 0.01 0.02 0.04 0.04 0.05 0.07 0.10 0.10 0.08 0.08 0.08 0.07 0.07 0.08 0.10 0.11 0.10 0.09 0.09 0.10 0.14 0.16 0.15 0.16 0.17 0.15 0.13 0.12 0.12 0.10 0.07 0.06 0.06 0.06 0.06 0.06 0.05 0.05
0.02 0.02 0.01 0.01 0.01 0.01 0.02 0.03 0.03 0.04 0.05 0.07 0.09 0.08 0.06 0.06 0.06 0.07 0.07 0.08 0.10 0.12 0.10 0.10 0.10 0.12 0.15 0.16 0.17 0.16 0.14 0.13 0.14 0.13 0.11 0.09 0.07 0.07 0.08 0.08 0.08 0.08 0.07
0.02 0.02 0.02 0.01 0.01 0.01 0.01 0.03 0.04 0.04 0.05 0.05 0.06 0.07 0.06 0.05 0.05 0.07 0.07 0.08 0.09 0.10 0.12 0.12 0.11 0.12 0.14 0.17 0.18 0.18 0.14 0.13 0.14 0.14 0.12 0.11 0.09 0.08 0.08 0.09 0.09 0.09 0.09
0.01 0.01 0.01 0.01 0.01 0.01 0.01 0.03 0.04 0.04 0.04 0.04 0.05 0.06 0.06 0.04 0.04 0.06 0.08 0.08 0.10 0.11 0.11 0.12 0.12 0.12 0.14 0.17 0.20 0.18 0.16 0.15 0.15 0.14 0.13 0.11 0.10 0.10 0.10 0.10 0.10 0.09 0.09
0.00 0.00 0.01 0.01 0.01 0.01 0.02 0.02 0.03 0.04 0.04 0.04 0.04 0.06 0.06 0.05 0.04 0.05 0.06 0.08 0.10 0.13 0.13 0.12 0.13 0.14 0.14 0.15 0.19 0.20 0.18 0.17 0.17 0.16 0.14 0.11 0.10 0.10 0.11 0.12 0.11 0.10 0.09
0.00 0.00 0.00 0.01 0.02 0.02 0.03 0.03 0.03 0.03 0.04 0.05 0.04 0.04 0.06 0.07 0.05 0.06 0.07 0.09 0.11 0.13 0.14 0.13 0.14 0.14 0.14 0.15 0.16 0.19 0.19 0.18 0.16 0.16 0.15 0.12 0.10 0.10 0.10 0.09 0.09 0.09 0.07
0.01 0.01 0.01 0.02 0.03 0.03 0.03 0.03 0.03 0.03 0.04 0.05 0.06 0.05 0.05 0.06 0.05 0.06 0.07 0.11 0.13 0.12 0.13 0.14 0.15 0.16 0.14 0.15 0.16 0.17 0.17 0.16 0.14 0.13 0.13 0.12 0.10 0.08 0.08 0.07 0.07 0.06 0.06
0.01 0.01 0.02 0.02 0.03 0.03 0.04 0.04 0.03 0.03 0.03 0.03 0.05 0.06 0.06 0.05 0.05 0.05 0.08 0.12 0.13 0.13 0.14 0.15 0.15 0.14 0.14 0.14 0.16 0.18 0.18 0.16 0.15 0.13 0.12 0.10 0.09 0.07 0.06 0.05 0.05 0.05 0.05
0.01 0.01 0.02 0.03 0.03 0.03 0.04 0.04 0.03 0.03 0.02 0.03 0.04 0.05 0.06 0.07 0.06 0.06 0.07 0.11 0.14 0.14 0.15 0.17 0.16 0.15 0.14 0.15 0.17 0.19 0.19 0.19 0.17 0.15 0.13 0.11 0.08 0.07 0.06 0.05 0.05 0.05 0.06
0.00 0.01 0.02 0.03 0.04 0.03 0.04 0.05 0.04 0.02 0.02 0.03 0.04 0.04 0.05 0.06 0.06 0.05 0.06 0.09 0.13 0.13 0.14 0.17 0.16 0.15 0.13 0.14 0.16 0.18 0.20 0.20 0.18 0.15 0.12 0.11 0.09 0.07 0.06 0.07 0.06 0.05 0.06
0.01 0.01 0.02 0.03 0.04 0.03 0.04 0.05 0.04 0.03 0.02 0.02 0.03 0.03 0.04 0.05 0.06 0.06 0.06 0.09 0.11 0.11 0.13 0.15 0.15 0.16 0.13 0.12 0.13 0.16 0.19 0.19 0.17 0.14 0.11 0.11 0.10 0.08 0.07 0.08 0.09 0.08 0.08
0.01 0.01 0.02 0.03 0.03 0.03 0.03 0.03 0.04 0.03 0.03 0.03 0.03 0.03 0.04 0.05 0.06 0.07 0.07 0.11 0.13 0.13 0.14 0.15 0.14 0.15 0.15 0.14 0.14 0.16 0.17 0.16 0.14 0.13 0.12 0.12 0.11 0.10 0.09 0.09 0.10 0.10 0.09
0.02 0.01 0.02 0.03 0.02 0.02 0.02 0.02 0.03 0.03 0.03 0.03 0.03 0.03 0.05 0.07 0.08 0.09 0.11 0.13 0.15 0.13 0.13 0.14 0.14 0.15 0.17 0.17 0.17 0.17 0.16 0.15 0.13 0.12 0.12 0.12 0.10 0.10 0.09 0.08 0.09 0.10 0.10
0.01 0.01 0.02 0.02 0.02 0.02 0.02 0.02 0.02 0.03 0.04 0.05 0.04 0.04 0.05 0.08 0.10 0.12 0.14 0.14 0.13 0.12 0.14 0.14 0.15 0.15 0.16 0.17 0.16 0.17 0.15 0.13 0.12 0.11 0.11 0.11 0.11 0.09 0.08 0.08 0.08 0.09 0.08
0.01 0.01 0.01 0.02 0.02 0.02 0.02 0.02 0.03 0.04 0.05 0.08 0.08 0.06 0.07 0.08 0.12 0.13 0.12 0.12 0.11 0.12 0.15 0.15 0.15 0.16 0.15 0.16 0.16 0.16 0.14 0.12 0.11 0.11 0.11 0.12 0.11 0.10 0.09 0.07 0.07 0.06 0.06
0.01 0.01 0.01 0.01 0.02 0.02 0.02 0.03 0.05 0.04 0.05 0.07 0.09 0.10 0.10 0.10 0.10 0.10 0.11 0.11 0.10 0.11 0.14 0.16 0.16 0.16 0.16 0.14 0.16 0.17 0.15 0.12 0.10 0.10 0.10 0.11 0.11 0.10 0.09 0.07 0.07 0.06 0.07
0.01 0.01 0.01 0.01 0.01 0.02 0.02 0.04 0.06 0.05 0.05 0.08 0.09 0.09 0.11 0.11 0.10 0.10 0.11 0.11 0.10 0.11 0.12 0.13 0.14 0.16 0.15 0.13 0.13 0.15 0.17 0.14 0.11 0.10 0.10 0.10 0.11 0.10 0.09 0.08 0.07 0.06 0.06
0.01 0.01 0.01 0.01 0.02 0.02 0.03 0.04 0.06 0.05 0.05 0.07 0.09 0.09 0.09 0.09 0.09 0.10 0.11 0.11 0.10 0.09 0.09 0.10 0.10 0.11 0.11 0.11 0.11 0.13 0.15 0.16 0.14 0.12 0.11 0.11 0.11 0.12 0.12 0.11 0.08 0.06 0.05
0.01 0.01 0.02 0.02 0.02 0.02 0.03 0.04 0.05 0.05 0.04 0.05 0.07 0.08 0.08 0.08 0.08 0.10 0.11 0.11 0.10 0.08 0.07 0.08 0.08 0.08 0.08 0.10 0.10 0.10 0.12 0.14 0.14 0.13 0.13 0.12 0.11 0.13 0.13 0.11 0.09 0.07 0.06
0.01 0.01 0.02 0.02 0.02 0.03 0.03 0.04 0.05 0.05 0.04 0.04 0.05 0.06 0.07 0.08 0.08 0.09 0.11 0.11 0.10 0.09 0.07 0.07 0.07 0.07 0.08 0.09 0.09 0.09 0.11 0.12 0.12 0.12 0.11 0.11 0.09 0.09 0.09 0.09 0.08 0.07 0.06
MSLP
1012.03 1011.75 1011.38 1010.95 1010.47 1009.96 1009.44 1008.91 1008.38 1007.83 1007.26 1006.66 1006.04 1005.42 1004.83 1004.31 1003.90 1003.63 1003.50 1003.50 1003.59 1003.72 1003.84 1003.89 1003.84 1003.69 1003.45 1003.17 1002.92 1002.75 1002.72 1002.86 1003.18 1003.64 1004.21 1004.83 1005.45 1006.02 1006.52 1006.95 1007.34 1007.71 1008.11
1011.51 1011.09 1010.60 1010.05 1009.49 1008.93 1008.39 1007.86 1007.33 1006.79 1006.21 1005.58 1004.91 1004.22 1003.55 1002.95 1002.47 1002.15 1002.01 1002.04 1002.18 1002.40 1002.61 1002.75 1002.78 1002.68 1002.47 1002.19 1001.92 1001.73 1001.68 1001.81 1002.13 1002.62 1003.25 1003.94 1004.64 1005.31 1005.91 1006.43 1006.89 1007.31 1007.75
1011.03 1010.46 1009.82 1009.15 1008.48 1007.84 1007.25 1006.69 1006.17 1005.63 1005.05 1004.40 1003.70 1002.96 1002.23 1001.56 1001.03 1000.67 1000.52 1000.56 1000.75 1001.03 1001.32 1001.54 1001.64 1001.58 1001.40 1001.13 1000.84 1000.61 1000.52 1000.63 1000.95 1001.46 1002.14 1002.91 1003.71 1004.49 1005.19 1005.82 1006.37 1006.86 1007.34
1010.62 1009.90 1009.10 1008.28 1007.47 1006.71 1006.03 1005.42 1004.85 1004.30 1003.71 1003.05 1002.34 1001.58 1000.81 1000.12 999.55 999.18 999.03 999.09 999.33 999.67 1000.03 1000.32 1000.48 1000.48 1000.32 1000.05 999.75 999.49 999.37 999.45 999.76 1000.28 1001.00 1001.84 1002.73 1003.61 1004.43 1005.17 1005.81 1006.38 1006.91
1010.24 1009.40 1008.45 1007.46 1006.48 1005.57 1004.75 1004.02 1003.37 1002.75 1002.13 1001.46 1000.74 999.98 999.23 998.54 998.00 997.65 997.53 997.64 997.93 998.34 998.77 999.14 999.37 999.42 999.29 999.04 998.73 998.46 998.32 998.37 998.66 999.20 999.94 1000.83 1001.79 1002.76 1003.68 1004.51 1005.24 1005.88 1006.46
1009.88 1008.92 1007.83 1006.67 1005.51 1004.40 1003.39 1002.50 1001.70 1000.97 1000.27 999.57 998.84 998.11 997.40 996.77 996.30 996.03 995.98 996.17 996.55 997.04 997.55 998.00 998.30 998.41 998.35 998.13 997.84 997.57 997.42 997.47 997.75 998.28 999.03 999.95 1000.96 1001.99 1002.98 1003.88 1004.69 1005.40 1006.03
1009.48 1008.43 1007.22 1005.90 1004.54 1003.21 1001.97 1000.85 999.86 998.97 998.15 997.38 996.64 995.94 995.30 994.77 994.41 994.26 994.35 994.65 995.13 995.72 996.33 996.87 997.25 997.45 997.45 997.30 997.06 996.83 996.70 996.75 997.03 997.56 998.31 999.23 1000.26 1001.33 1002.36 1003.32 1004.18 1004.95 1005.63
1009.01 1007.90 1006.58 1005.11 1003.56 1002.01 1000.51 999.13 997.90 996.80 995.82 994.96 994.19 993.52 992.97 992.57 992.36 992.37 992.60 993.05 993.66 994.36 995.07 995.70 996.18 996.47 996.56 996.50 996.34 996.18 996.10 996.18 996.48 997.01 997.76 998.68 999.71 1000.78 1001.84 1002.83 1003.73 1004.55 1005.28
1008.45 1007.29 1005.89 1004.30 1002.58 1000.81 999.06 997.41 995.91 994.58 993.42 992.44 991.62 990.98 990.53 990.26 990.22 990.40 990.80 991.40 992.14 992.95 993.75 994.47 995.04 995.42 995.62 995.66 995.61 995.55 995.55 995.70 996.04 996.59 997.34 998.26 999.28 1000.34 1001.40 1002.41 1003.35 1004.21 1004.99
1007.82 1006.62 1005.16 1003.47 1001.62 999.66 997.68 995.78 994.02 992.46 991.12 990.01 989.15 988.53 988.15 988.02 988.14 988.49 989.04 989.77 990.62 991.52 992.39 993.17 993.81 994.28 994.58 994.74 994.81 994.87 994.99 995.23 995.64 996.24 997.01 997.92 998.93 999.98 1001.04 1002.06 1003.03 1003.93 1004.78
1007.16 1005.91 1004.42 1002.67 1000.72 998.62 996.47 994.36 992.39 990.62 989.12 987.90 986.99 986.38 986.08 986.06 986.32 986.80 987.47 988.30 989.21 990.15 991.05 991.86 992.53 993.06 993.44 993.71 993.92 994.12 994.38 994.74 995.25 995.90 996.71 997.64 998.64 999.69 1000.75 1001.78 1002.78 1003.73 1004.64
1006.51 1005.23 1003.71 1001.94 999.93 997.75 995.48 993.23 991.11 989.20 987.57 986.27 985.33 984.74 984.50 984.57 984.92 985.50 986.24 987.10 988.03 988.95 989.82 990.61 991.28 991.83 992.27 992.64 992.97 993.32 993.72 994.22 994.84 995.59 996.45 997.41 998.43 999.48 1000.54 1001.59 1002.61 1003.61 1004.58
1005.94 1004.63 1003.09 1001.30 999.28 997.07 994.75 992.44 990.23 988.25 986.56 985.22 984.28 983.72 983.53 983.66 984.08 984.70 985.46 986.30 987.17 988.02 988.82 989.53 990.15 990.69 991.17 991.61 992.06 992.54 993.09 993.74 994.48 995.33 996.26 997.26 998.30 999.36 1000.43 1001.49 1002.54 1003.57 1004.59
1005.51 1004.14 1002.58 1000.80 998.78 996.58 994.27 991.96 989.75 987.76 986.07 984.75 983.83 983.32 983.17 983.36 983.80 984.42 985.15 985.93 986.71 987.44 988.11 988.71 989.25 989.75 990.24 990.74 991.28 991.89 992.59 993.37 994.24 995.19 996.19 997.24 998.30 999.38 1000.45 1001.52 1002.59 1003.64 1004.70
1005.24 1003.80 1002.21 1000.42 998.42 996.26 994.00 991.73 989.57 987.63 986.00 984.74 983.88 983.43 983.34 983.56 984.01 984.60 985.28 985.96 986.61 987.20 987.73 988.21 988.65 989.10 989.58 990.13 990.75 991.48 992.30 993.21 994.20 995.24 996.31 997.40 998.48 999.56 1000.64 1001.70 1002.77 1003.84 1004.90
1005.14 1003.62 1001.97 1000.16 998.17 996.04 993.83 991.64 989.57 987.72 986.19 985.02 984.25 983.87 983.84 984.09 984.54 985.10 985.70 986.28 986.81 987.27 987.67 988.03 988.39 988.79 989.27 989.85 990.56 991.38 992.31 993.33 994.42 995.53 996.66 997.78 998.87 999.95 1001.01 1002.06 1003.11 1004.16 1005.23
1005.21 1003.58 1001.85 999.99 997.98 995.87 993.72 991.60 989.63 987.89 986.47 985.41 984.74 984.44 984.46 984.74 985.19 985.72 986.27 986.77 987.19 987.55 987.85 988.13 988.44 988.83 989.32 989.95 990.73 991.64 992.67 993.78 994.94 996.11 997.27 998.40 999.49 1000.55 1001.58 1002.60 1003.62 1004.65 1005.69
1005.43 1003.68 1001.85 999.90 997.85 995.73 993.60 991.55 989.66 988.02 986.70 985.75 985.17 984.95 985.03 985.34 985.79 986.31 986.82 987.27 987.65 987.95 988.21 988.47 988.78 989.18 989.72 990.41 991.27 992.26 993.37 994.55 995.77 996.98 998.15 999.28 1000.35 1001.37 1002.36 1003.34 1004.32 1005.31 1006.30
1005.77 1003.90 1001.94 999.90 997.78 995.62 993.50 991.48 989.65 988.09 986.86 985.99 985.48 985.32 985.45 985.79 986.26 986.78 987.29 987.74 988.11 988.42 988.70 988.99 989.34 989.81 990.42 991.20 992.13 993.20 994.38 995.61 996.86 998.08 999.26 1000.37 1001.41 1002.39 1003.34 1004.27 1005.20 1006.14 1007.08
1006.22 1004.24 1002.17 1000.02 997.82 995.62 993.48 991.47 989.68 988.17 986.99 986.17 985.72 985.60 985.75 986.12 986.61 987.15 987.68 988.16 988.58 988.95 989.29 989.66 990.11 990.67 991.38 992.24 993.26 994.39 995.62 996.89 998.15 999.38 1000.54 1001.62 1002.63 1003.57 1004.48 1005.36 1006.24 1007.13 1008.02
1006.76 1004.69 1002.54 1000.31 998.05 995.81 993.65 991.65 989.87 988.38 987.23 986.44 986.01 985.90 986.07 986.45 986.96 987.53 988.10 988.64 989.13 989.58 990.03 990.51 991.07 991.74 992.55 993.50 994.58 995.77 997.03 998.31 999.57 1000.79 1001.92 1002.98 1003.96 1004.87 1005.74 1006.59 1007.42 1008.26 1009.09
1007.38 1005.28 1003.08 1000.82 998.53 996.28 994.12 992.12 990.35 988.88 987.74 986.95 986.52 986.41 986.57 986.95 987.47 988.07 988.68 989.29 989.87 990.42 990.98 991.58 992.25 993.03 993.92 994.94 996.07 997.28 998.54 999.82 1001.06 1002.25 1003.37 1004.40 1005.35 1006.24 1007.08 1007.89 1008.69 1009.48 1010.25
1008.07 1005.99 1003.81 1001.57 999.31 997.08 994.95 992.97 991.23 989.77 988.63 987.84 987.39 987.26 987.41 987.78 988.30 988.92 989.58 990.24 990.90 991.55 992.22 992.91 993.67 994.52 995.47 996.53 997.67 998.87 1000.12 1001.36 1002.57 1003.73 1004.81 1005.82 1006.75 1007.62 1008.44 1009.23 1009.99 1010.73 1011.44
1008.82 1006.82 1004.72 1002.56 1000.37 998.21 996.14 994.22 992.52 991.08 989.96 989.16 988.70 988.55 988.67 989.02 989.54 990.18 990.87 991.58 992.31 993.03 993.77 994.53 995.35 996.24 997.20 998.25 999.36 1000.53 1001.72 1002.91 1004.07 1005.18 1006.23 1007.21 1008.12 1008.98 1009.78 1010.55 1011.27 1011.96 1012.60
1009.61 1007.74 1005.77 1003.73 1001.66 999.62 997.64 995.80 994.16 992.77 991.67 990.88 990.41 990.24 990.35 990.69 991.21 991.85 992.56 993.31 994.08 994.85 995.63 996.43 997.26 998.15 999.08 1000.08 1001.13 1002.22 1003.34 1004.45 1005.54 1006.59 1007.59 1008.54 1009.43 1010.27 1011.05 1011.79 1012.48 1013.11 1013.68
1010.44 1008.72 1006.90 1005.01 1003.09 1001.17 999.32 997.58 996.02 994.68 993.62 992.85 992.39 992.23 992.33 992.67 993.20 993.85 994.58 995.36 996.15 996.95 997.74 998.54 999.36 1000.20 1001.07 1001.99 1002.95 1003.94 1004.95 1005.97 1006.97 1007.95 1008.90 1009.81 1010.67 1011.48 1012.23 1012.94 1013.58 1014.15 1014.65
Thickness
5563 5560 5557 5555 5554 5553 5552 5553 5553 5554 5555 5558 5561 5564 5568 5572 5575 5578 5580 5583 5587 5591 5595 5600 5605 5608 5613 5618 5622 5624 5628 5631 5633 5634 5636 5640 5644 5647 5650 5652 5653 5653 5652
5556 5552 5549 5547 5546 5545 5544 5543 5544 5544 5544 5545 5548 5551 5554 5558 5562 5564 5566 5569 5573 5576 5580 5585 5590 5594 5598 5603 5608 5611 5614 5618 5621 5625 5626 5629 5631 5637 5642 5644 5646 5647 5646
5550 5547 5543 5540 5539 5537 5536 5535 5534 5534 5535 5535 5536 5539 5542 5546 5549 5552 5554 5557 5559 5562 5566 5571 5576 5580 5584 5590 5595 5598 5602 5605 5610 5615 5620 5623 5629 5631 5633 5636 5638 5640 5641
5543 5539 5536 5534 5532 5529 5527 5526 5526 5526 5526 5526 5527 5529 5531 5535 5539 5540 5543 5546 5547 5550 5554 5558 5562 5566 5571 5577 5582 5586 5591 5594 5598 5603 5611 5619 5626 5625 5625 5626 5630 5633 5634
5536 5533 5529 5526 5524 5521 5519 5518 5517 5517 5517 5517 5517 5518 5521 5524 5527 5528 5531 5535 5537 5539 5543 5546 5550 5555 5559 5565 5571 5575 5579 5584 5588 5594 5600 5605 5612 5619 5622 5623 5623 5624 5627
5531 5527 5523 5519 5517 5513 5511 5509 5509 5509 5508 5508 5508 5509 5512 5514 5516 5518 5520 5524 5527 5531 5534 5537 5541 5545 5550 5555 5561 5566 5570 5574 5579 5585 5590 5596 5602 5610 5615 5619 5618 5619 5620
5524 5520 5516 5513 5511 5507 5504 5502 5501 5501 5500 5500 5500 5500 5500 5503 5506 5509 5511 5514 5518 5522 5526 5528 5532 5536 5541 5545 5550 5556 5562 5566 5571 5577 5582 5588 5595 5601 5607 5610 5611 5611 5612
5517 5512 5507 5505 5503 5500 5497 5495 5493 5493 5492 5492 5492 5490 5491 5494 5498 5501 5502 5505 5509 5513 5516 5519 5523 5528 5533 5537 5542 5547 5554 5559 5564 5569 5573 5578 5585 5591 5598 5604 5604 5603 5604
5510 5505 5501 5497 5495 5493 5490 5487 5485 5485 5483 5483 5482 5482 5483 5485 5489 5492 5493 5496 5499 5503 5506 5510 5515 5520 5525 5529 5535 5542 5547 5552 5557 5562 5566 5570 5577 5584 5589 5595 5599 5601 5601
5503 5499 5495 5492 5489 5486 5483 5480 5477 5476 5475 5474 5473 5474 5475 5477 5480 5482 5485 5487 5492 5494 5497 5501 5508 5513 5518 5522 5528 5535 5541 5546 5550 5554 5558 5564 5569 5576 5581 5587 5592 5596 5600
5497 5493 5490 5486 5483 5480 5476 5474 5471 5469 5468 5467 5467 5467 5469 5470 5473 5475 5478 5480 5483 5487 5490 5495 5500 5507 5513 5517 5522 5530 5535 5540 5545 5548 5552 5558 5563 5568 5574 5579 5584 5588 5593
5490 5487 5484 5481 5478 5475 5471 5468 5466 5464 5462 5461 5461 5461 5463 5465 5468 5470 5472 5473 5476 5481 5484 5488 5493 5501 5507 5512 5518 5525 5531 5535 5540 5544 5547 5553 5556 5562 5567 5573 5578 5582 5586
5484 5481 5478 5475 5472 5469 5465 5462 5460 5458 5457 5455 5455 5457 5459 5461 5463 5465 5466 5468 5471 5476 5479 5484 5489 5496 5502 5508 5516 5522 5527 5531 5536 5540 5544 5549 5552 5558 5562 5567 5572 5575 5578
5479 5475 5472 5470 5466 5462 5459 5456 5454 5453 5452 5451 5451 5453 5455 5457 5459 5460 5460 5462 5466 5471 5476 5481 5487 5493 5499 5506 5512 5518 5523 5528 5532 5536 5541 5546 5550 5555 5559 5562 5566 5568 5570
5474 5470 5466 5463 5460 5457 5453 5450 5449 5448 5448 5448 5448 5449 5450 5452 5454 5455 5456 5458 5461 5467 5472 5479 5484 5491 5498 5504 5509 5514 5520 5524 5528 5533 5538 5543 5547 5552 5555 5559 5562 5563 5564
5467 5463 5459 5455 5452 5450 5447 5445 5444 5444 5444 5444 5445 5446 5446 5448 5449 5452 5454 5456 5459 5464 5469 5476 5482 5489 5496 5501 5506 5511 5516 5521 5525 5531 5536 5540 5543 5547 5550 5553 5557 5559 5561
5458 5454 5451 5447 5445 5443 5440 5440 5439 5439 5439 5440 5441 5443 5444 5444 5446 5449 5451 5455 5458 5462 5466 5471 5478 5486 5493 5498 5503 5508 5514 5518 5523 5529 5534 5537 5540 5543 5545 5547 5549 5550 5554
5450 5447 5444 5441 5439 5436 5435 5434 5434 5434 5434 5435 5437 5438 5438 5439 5442 5445 5448 5452 5455 5460 5464 5469 5475 5483 5490 5495 5500 5505 5510 5516 5521 5527 5531 5534 5537 5540 5542 5543 5544 5546 5548
5442 5439 5437 5434 5432 5431 5430 5429 5429 5429 5430 5431 5432 5433 5433 5434 5437 5441 5445 5449 5452 5456 5461 5467 5473 5481 5487 5492 5497 5501 5506 5512 5518 5523 5527 5531 5534 5536 5537 5538 5539 5540 5540
5435 5432 5430 5428 5426 5425 5423 5423 5424 5425 5426 5427 5428 5430 5431 5431 5434 5437 5441 5446 5449 5454 5459 5465 5471 5478 5484 5489 5494 5498 5504 5510 5516 5521 5525 5528 5531 5531 5533 5535 5536 5535 5535
5427 5425 5423 5422 5421 5419 5417 5417 5418 5419 5420 5422 5424 5425 5426 5429 5432 5435 5439 5443 5447 5451 5456 5461 5468 5474 5480 5485 5491 5496 5502 5508 5514 5518 5521 5523 5524 5526 5528 5531 5533 5534 5532
5420 5418 5416 5416 5415 5413 5410 5411 5413 5414 5415 5417 5419 5421 5422 5424 5427 5431 5435 5439 5444 5448 5453 5458 5464 5471 5476 5481 5487 5493 5499 5505 5510 5514 5517 5518 5519 5521 5523 5525 5526 5524 5524
5412 5410 5409 5410 5410 5407 5405 5405 5407 5407 5408 5411 5413 5415 5417 5419 5421 5425 5429 5434 5439 5444 5449 5454 5460 5466 5472 5477 5482 5488 5494 5499 5505 5508 5511 5512 5513 5515 5516 5517 5517 5516 5517
5405 5403 5402 5402 5403 5401 5399 5398 5399 5399 5401 5404 5406 5408 5410 5412 5416 5419 5423 5428 5433 5438 5443 5449 5455 5461 5466 5471 5477 5482 5488 5494 5498 5501 5503 5506 5508 5509 5509 5508 5508 5510 5511
5397 5395 5394 5394 5395 5394 5393 5392 5392 5392 5394 5396 5398 5400 5402 5404 5409 5413 5417 5421 5427 5431 5436 5443 5450 5456 5463 5467 5472 5478 5485 5489 5492 5495 5497 5499 5501 5502 5502 5502 5502 5502 5502
5389 5387 5387 5387 5387 5386 5387 5386 5385 5385 5386 5388 5390 5392 5394 5397 5401 5406 5412 5416 5421 5426 5431 5437 5443 5450 5456 5461 5468 5474 5480 5484 5487 5491 5494 5495 5497 5499 5498 5498 5497 5496 5496